Tirane, Albania

6:33 AM CET on March 24, 2017 (GMT +0100)
Tirane

Weather History for 13615 - April, 2013

Change the Weather History Date:

Friday, April 5, 2013

  Actual Average Record
Temperature  
Mean Temperature 58 °F -  
Max Temperature 69 °F 65 °F - ()
Min Temperature 48 °F 49 °F - ()
Degree Days  
Heating Degree Days 6    
Growing Degree Days 8 (Base 50)    
Moisture  
Dew Point 47 °F    
Average Humidity 67    
Maximum Humidity 93    
Minimum Humidity 27    
Precipitation  
Precipitation 0.00 in -13.12 in - ()
Sea Level Pressure  
Sea Level Pressure 29.68 in    
Wind  
Wind Speed 7 mph ()    
Max Wind Speed 25 mph    
Max Gust Speed 39 mph    
Visibility 6.5 miles    
Events Rain    
T = Trace of Precipitation, MM = Missing Value Source: Averaged Metar Reports

Daily Weather History Graph

Daily Weather History Graph

Search for Another Location

Airport or City:

Trip Planner

Search our weather history database for the weather conditions in past years. The results will help you decide how hot, cold, wet, or windy it might be!

Date:

Astronomy

Apr. 05, 2013 Rise Set
Actual Time 6:17 AM CEST 7:10 PM CEST
Civil Twilight 5:49 AM CEST 7:38 PM CEST
Nautical Twilight 5:16 AM CEST 8:12 PM CEST
Astronomical Twilight 4:41 AM CEST 8:47 PM CEST
Moon 3:16 AM CEST (4/5) 2:11 PM CEST (4/5)
Length of Visible Light 13h 49m
Length of Day
12h 53m
Waning Crescent, 26% of the Moon is Illuminated
Apr 5
Waning Crescent
Apr 10
New
Apr 18
First Quarter
Apr 25
Full
May 2
Last Quarter

Hourly Weather History & Observations

Time (CEST) Temp. Dew Point Humidity Pressure Visibility Wind Dir Wind Speed Gust Speed Precip Events Conditions
12:20 AM 48.2 °F 46.4 °F 93% 29.86 in 6.2 mi South 3.5 mph - N/A   Unknown
12:50 AM 48.2 °F 44.6 °F 87% 29.86 in 6.2 mi Calm Calm - N/A   Unknown
1:20 AM 48.2 °F 44.6 °F 87% 29.83 in 6.2 mi Variable 2.3 mph - N/A   Partly Cloudy
1:50 AM 48.2 °F 46.4 °F 93% 29.83 in 6.2 mi ESE 3.5 mph - N/A   Partly Cloudy
2:20 AM 48.2 °F 46.4 °F 93% 29.77 in 6.2 mi SE 4.6 mph - N/A   Mostly Cloudy
2:50 AM 48.2 °F 46.4 °F 93% 29.74 in 6.2 mi South 5.8 mph - N/A   Scattered Clouds
3:20 AM 51.8 °F 44.6 °F 76% 29.74 in 6.2 mi SSW 6.9 mph - N/A   Mostly Cloudy
3:50 AM 51.8 °F 44.6 °F 76% 29.71 in 6.2 mi SSE 5.8 mph - N/A   Mostly Cloudy
4:20 AM 51.8 °F 44.6 °F 76% 29.71 in 6.2 mi South 4.6 mph - N/A   Mostly Cloudy
4:50 AM 50.0 °F 46.4 °F 87% 29.74 in 6.2 mi North 8.1 mph - N/A   Mostly Cloudy
5:00 AM 50 °F 46 °F 83% 29.74 in 11 mi NNE 4.5 mph - -   Partly Cloudy
5:20 AM 51.8 °F 46.4 °F 82% 29.71 in 6.2 mi NNE 6.9 mph - N/A   Scattered Clouds
5:50 AM 50.0 °F 46.4 °F 87% 29.68 in 6.2 mi NW 5.8 mph - N/A   Scattered Clouds
6:20 AM 50.0 °F 46.4 °F 87% 29.65 in 6.2 mi Calm Calm - N/A   Overcast
6:50 AM 50.0 °F 46.4 °F 87% 29.62 in 6.2 mi North 3.5 mph - N/A   Overcast
7:20 AM 51.8 °F 48.2 °F 88% 29.59 in 6.2 mi ENE 2.3 mph - N/A   Overcast
7:50 AM 51.8 °F 46.4 °F 82% 29.59 in 6.2 mi Variable 3.5 mph - N/A   Overcast
8:20 AM 53.6 °F 46.4 °F 77% 29.59 in 6.2 mi SE 3.5 mph - N/A   Overcast
8:50 AM 64.4 °F 37.4 °F 37% 29.56 in 6.2 mi SSE 13.8 mph - N/A   Overcast
9:20 AM 66.2 °F 35.6 °F 32% 29.56 in 6.2 mi SSE 18.4 mph - N/A   Overcast
9:50 AM 66.2 °F 35.6 °F 32% 29.56 in 6.2 mi SE 10.4 mph - N/A   Overcast
10:20 AM 66.2 °F 35.6 °F 32% 29.59 in 6.2 mi SW 6.9 mph - N/A   Overcast
10:50 AM 64.4 °F 37.4 °F 37% 29.62 in 6.2 mi SW 6.9 mph - N/A Rain Light Rain
11:00 AM 65 °F 39 °F 27% 29.62 in 12 mi South 24.6 mph - -   Scattered Clouds
11:20 AM 62.6 °F 42.8 °F 48% 29.56 in 6.2 mi SSE 21.9 mph 36.8 mph N/A Rain Light Rain
11:50 AM 66.2 °F 39.2 °F 37% 29.59 in 6.2 mi South 11.5 mph - N/A   Overcast
12:20 PM 64.4 °F 41.0 °F 42% 29.62 in 6.2 mi South 9.2 mph - N/A   Overcast
12:50 PM 68.0 °F 41.0 °F 37% 29.62 in 6.2 mi SSW 21.9 mph 34.5 mph N/A   Overcast
1:20 PM 66.2 °F 42.8 °F 43% 29.62 in 6.2 mi SSW 23.0 mph 39.1 mph N/A   Overcast
1:50 PM 66.2 °F 44.6 °F 46% 29.62 in 6.2 mi SSW 24.2 mph 36.8 mph N/A   Overcast
2:20 PM 66.2 °F 46.4 °F 49% 29.65 in 6.2 mi South 18.4 mph 29.9 mph N/A   Overcast
2:50 PM 66.2 °F 46.4 °F 49% 29.62 in 6.2 mi South 19.6 mph - N/A   Mostly Cloudy
3:20 PM 68.0 °F 50.0 °F 52% 29.65 in 6.2 mi South 20.7 mph - N/A   Scattered Clouds
3:50 PM 69.8 °F 51.8 °F 53% 29.65 in 6.2 mi South 18.4 mph - N/A   Mostly Cloudy
4:20 PM 69.8 °F 51.8 °F 53% 29.65 in 6.2 mi SSW 15.0 mph - N/A   Scattered Clouds
4:50 PM 68.0 °F 51.8 °F 56% 29.65 in 6.2 mi SSW 13.8 mph - N/A   Scattered Clouds
5:00 PM 68 °F 53 °F 48% 29.66 in 11 mi SSW 13.4 mph - -  
5:20 PM 68.0 °F 51.8 °F 56% 29.65 in 6.2 mi SSW 13.8 mph - N/A   Scattered Clouds
5:50 PM 68.0 °F 51.8 °F 56% 29.65 in 6.2 mi SSW 11.5 mph - N/A   Scattered Clouds
6:20 PM 66.2 °F 51.8 °F 60% 29.68 in 6.2 mi South 8.1 mph - N/A   Scattered Clouds
6:50 PM 64.4 °F 51.8 °F 64% 29.68 in 6.2 mi SSW 4.6 mph - N/A   Scattered Clouds
7:20 PM 62.6 °F 51.8 °F 68% 29.71 in 6.2 mi Calm Calm - N/A   Partly Cloudy
7:50 PM 62.6 °F 51.8 °F 68% 29.71 in 6.2 mi SE 4.6 mph - N/A   Partly Cloudy
8:20 PM 59.0 °F 51.8 °F 77% 29.71 in 6.2 mi Variable 2.3 mph - N/A   Partly Cloudy
8:50 PM 59.0 °F 51.8 °F 77% 29.74 in - ESE 3.5 mph - N/A   Clear
9:20 PM 57.2 °F 51.8 °F 82% 29.74 in - Variable 1.2 mph - N/A   Clear
9:50 PM 55.4 °F 50.0 °F 82% 29.74 in - Variable 2.3 mph - N/A   Clear
10:20 PM 55.4 °F 50.0 °F 82% 29.77 in - Calm Calm - N/A   Clear
10:50 PM 55.4 °F 51.8 °F 88% 29.77 in - SSE 3.5 mph - N/A   Clear
11:00 PM 54 °F 51 °F 88% 29.78 in 6 mi SSE 2.2 mph - -  
11:20 PM 53.6 °F 50.0 °F 88% 29.77 in - South 4.6 mph - N/A   Clear
11:50 PM 53.6 °F 50.0 °F 88% 29.77 in 6.2 mi South 3.5 mph - N/A   Partly Cloudy